Terminal Aerodrome Forecast
Issued by NWS Jackson, KY

Home | Current Version | Previous Version | Text Only | Print | Product List | Glossary On
Versions: 1 2 3 4 5 6 7 8 9 10 11 12 13 14 15 16 17
000
FTUS43 KJKL 261700
TAFJKL
TAF
KJKL 261733Z 2618/2718 20005KT P6SM SCT250
     FM270900 VRB03KT P6SM BKN100
     FM271400 20007KT P6SM BKN060=

USA.gov is the U.S. government's official web portal to all federal, state and local government web resources and services.